KNE7460 OEMA-VGHS

Flight info

Callsign KNE7460
Flight time N/A
Altitude 35000
Route MEDRO M872 GOKSA Y214 RAPMA DCT DEGNO DCT MIDGU M440 TULBU N881 RASKI L639 BPL A791 CEA A462 IKOGU
Aircraft A339/H-SADE1E2E3GHIJ3J5M1P2RWXY/LB2D1

Departure

Time 2026-04-29 10:17
Airport Prince Mohammad Bin Abdulaziz Airport (OEMA)

Arrival

Time N/A
Airport Hazrat Shahjalal International Airport (VGHS)
Time Latitude Longitude Altitude Speed Heading
2026-04-29 09:48 24.56119 39.71136 2155 ft 0 kts 78°
2026-04-29 10:04 24.56118 39.71134 2156 ft 1 kts 78°
2026-04-29 10:05 24.56115 39.71118 2157 ft 2 kts 78°
2026-04-29 10:05 24.56112 39.71102 2159 ft 2 kts 78°
2026-04-29 10:05 24.56109 39.71086 2160 ft 2 kts 79°
2026-04-29 10:05 24.56109 39.71069 2160 ft 2 kts 108°
2026-04-29 10:06 24.56115 39.71055 2157 ft 2 kts 131°
2026-04-29 10:06 24.56127 39.71043 2155 ft 2 kts 154°
2026-04-29 10:06 24.56136 39.71040 2153 ft 0 kts 169°
2026-04-29 10:06 24.56142 39.71038 2152 ft 0 kts 169°
2026-04-29 10:09 24.56140 39.71039 2152 ft 1 kts 169°
2026-04-29 10:09 24.56121 39.71042 2152 ft 4 kts 169°
2026-04-29 10:10 24.56075 39.71052 2152 ft 8 kts 172°
2026-04-29 10:10 24.56021 39.71017 2151 ft 11 kts 241°
2026-04-29 10:10 24.56002 39.70937 2148 ft 10 kts 259°
2026-04-29 10:10 24.56027 39.70873 2146 ft 11 kts 332°
2026-04-29 10:11 24.56102 39.70850 2147 ft 11 kts 349°
2026-04-29 10:11 24.56195 39.70829 2148 ft 15 kts 349°
2026-04-29 10:11 24.56319 39.70803 2147 ft 20 kts 349°
2026-04-29 10:11 24.56466 39.70772 2147 ft 23 kts 349°
2026-04-29 10:12 24.56630 39.70737 2147 ft 24 kts 349°
2026-04-29 10:12 24.56791 39.70703 2149 ft 22 kts 349°
2026-04-29 10:12 24.56940 39.70672 2150 ft 21 kts 349°
2026-04-29 10:12 24.57093 39.70639 2151 ft 22 kts 349°
2026-04-29 10:13 24.57242 39.70607 2152 ft 21 kts 349°
2026-04-29 10:13 24.57383 39.70577 2152 ft 20 kts 349°
2026-04-29 10:13 24.57521 39.70548 2151 ft 19 kts 349°
2026-04-29 10:13 24.57615 39.70527 2151 ft 9 kts 343°
2026-04-29 10:14 24.57650 39.70472 2151 ft 10 kts 271°
2026-04-29 10:14 24.57639 39.70390 2149 ft 8 kts 259°
2026-04-29 10:14 24.57628 39.70342 2148 ft 2 kts 233°
2026-04-29 10:14 24.57610 39.70339 2148 ft 3 kts 170°
2026-04-29 10:15 24.57609 39.70339 2148 ft 0 kts 170°
2026-04-29 10:16 24.57561 39.70348 2148 ft 27 kts 170°
2026-04-29 10:17 24.57146 39.70436 2146 ft 91 kts 169°
2026-04-29 10:17 24.56332 39.70610 2141 ft 146 kts 169°
2026-04-29 10:17 24.55171 39.70853 2231 ft 182 kts 170°
2026-04-29 10:17 24.53927 39.71093 2838 ft 180 kts 171°
2026-04-29 10:18 24.52719 39.71347 3489 ft 173 kts 171°
2026-04-29 10:18 24.51512 39.71605 3751 ft 180 kts 170°
2026-04-29 10:18 24.50230 39.71881 3952 ft 192 kts 170°
2026-04-29 10:18 24.48889 39.72169 4166 ft 203 kts 170°
2026-04-29 10:19 24.47446 39.72476 4387 ft 216 kts 171°
2026-04-29 10:19 24.45924 39.72798 4610 ft 229 kts 171°
2026-04-29 10:19 24.44310 39.73139 4853 ft 242 kts 171°
2026-04-29 10:19 24.42619 39.73493 5099 ft 257 kts 171°
2026-04-29 10:20 24.40808 39.73873 5362 ft 271 kts 170°
2026-04-29 10:20 24.38908 39.74274 5805 ft 277 kts 170°
2026-04-29 10:20 24.37067 39.74869 6330 ft 282 kts 152°
2026-04-29 10:20 24.35577 39.76255 6868 ft 286 kts 127°
2026-04-29 10:21 24.34726 39.78214 7366 ft 292 kts 102°
2026-04-29 10:21 24.34620 39.80449 7910 ft 295 kts 86°
2026-04-29 10:21 24.34843 39.82679 8446 ft 297 kts 82°
2026-04-29 10:21 24.35159 39.84909 8970 ft 300 kts 81°
2026-04-29 10:22 24.35500 39.87191 9478 ft 304 kts 81°
2026-04-29 10:22 24.35837 39.89480 10007 ft 307 kts 81°
2026-04-29 10:22 24.36175 39.91821 10397 ft 316 kts 82°
2026-04-29 10:22 24.36518 39.94237 10647 ft 331 kts 82°
2026-04-29 10:23 24.36878 39.96795 10914 ft 344 kts 82°
2026-04-29 10:23 24.37254 39.99458 11151 ft 359 kts 82°
2026-04-29 10:23 24.37647 40.02233 11392 ft 373 kts 82°
2026-04-29 10:23 24.38051 40.05103 11626 ft 387 kts 82°
2026-04-29 10:24 24.38469 40.08080 12007 ft 396 kts 82°
2026-04-29 10:24 24.38893 40.11093 12549 ft 400 kts 82°
2026-04-29 10:24 24.39316 40.14101 13109 ft 403 kts 82°
2026-04-29 10:24 24.39742 40.17160 13625 ft 408 kts 82°
2026-04-29 10:25 24.40177 40.20290 14144 ft 413 kts 82°
2026-04-29 10:25 24.40611 40.23418 14688 ft 416 kts 82°
2026-04-29 10:25 24.41049 40.26572 15209 ft 421 kts 82°
2026-04-29 10:25 24.41495 40.29787 15744 ft 425 kts 82°
2026-04-29 10:26 24.41945 40.33017 16270 ft 429 kts 82°
2026-04-29 10:26 24.42397 40.36264 16736 ft 435 kts 82°
2026-04-29 10:26 24.42854 40.39582 17240 ft 439 kts 82°
2026-04-29 10:26 24.43310 40.42874 17729 ft 444 kts 82°
2026-04-29 10:27 24.44242 40.49655 18726 ft 452 kts 82°
2026-04-29 10:27 24.44715 40.53111 19211 ft 456 kts 82°
2026-04-29 10:27 24.45188 40.56572 19683 ft 460 kts 82°
2026-04-29 10:28 24.45530 40.60074 20113 ft 464 kts 88°
2026-04-29 10:28 24.45573 40.63640 20555 ft 467 kts 94°
2026-04-29 10:28 24.45327 40.67167 20983 ft 470 kts 98°
2026-04-29 10:28 24.44960 40.70729 21402 ft 473 kts 99°
2026-04-29 10:29 24.44558 40.74396 21834 ft 476 kts 99°
2026-04-29 10:29 24.44167 40.77998 22229 ft 480 kts 99°
2026-04-29 10:29 24.43774 40.81676 22630 ft 483 kts 99°
2026-04-29 10:29 24.43389 40.85371 22984 ft 487 kts 99°
2026-04-29 10:30 24.43005 40.89089 23300 ft 491 kts 99°
2026-04-29 10:30 24.42616 40.92847 23600 ft 495 kts 99°
2026-04-29 10:30 24.42222 40.96650 23959 ft 497 kts 99°
2026-04-29 10:30 24.41834 41.00400 24301 ft 499 kts 99°
2026-04-29 10:31 24.41431 41.04246 24581 ft 502 kts 100°
2026-04-29 10:31 24.41034 41.08054 24830 ft 506 kts 100°
2026-04-29 10:31 24.40627 41.11956 25060 ft 510 kts 100°
2026-04-29 10:31 24.40220 41.15866 25312 ft 513 kts 100°
2026-04-29 10:32 24.39812 41.19734 25573 ft 516 kts 100°
2026-04-29 10:32 24.39404 41.23642 25816 ft 519 kts 100°
2026-04-29 10:32 24.38985 41.27604 26038 ft 522 kts 101°
2026-04-29 10:32 24.38562 41.31580 26263 ft 525 kts 100°
2026-04-29 10:33 24.38136 41.35597 26491 ft 527 kts 100°
2026-04-29 10:33 24.37711 41.39607 26708 ft 530 kts 100°
2026-04-29 10:33 24.37286 41.43590 26917 ft 532 kts 101°
2026-04-29 10:33 24.36854 41.47659 27134 ft 535 kts 101°
2026-04-29 10:34 24.36410 41.51763 27337 ft 537 kts 101°
2026-04-29 10:34 24.35975 41.55813 27529 ft 540 kts 101°
2026-04-29 10:34 24.35531 41.59937 27740 ft 541 kts 101°
2026-04-29 10:34 24.35090 41.64020 28111 ft 539 kts 101°
2026-04-29 10:35 24.34651 41.68108 28424 ft 537 kts 102°
2026-04-29 10:35 24.34213 41.72119 28663 ft 538 kts 101°
2026-04-29 10:35 24.33761 41.76223 28884 ft 540 kts 101°
2026-04-29 10:35 24.33253 41.80262 29091 ft 540 kts 104°
2026-04-29 10:36 24.32534 41.84320 29314 ft 538 kts 108°
2026-04-29 10:36 24.31593 41.88325 29534 ft 537 kts 111°
2026-04-29 10:36 24.30555 41.92297 29755 ft 538 kts 111°
2026-04-29 10:36 24.29507 41.96211 29974 ft 539 kts 111°
2026-04-29 10:37 24.28447 42.00170 30212 ft 539 kts 111°
2026-04-29 10:37 24.27383 42.04162 30513 ft 539 kts 111°
2026-04-29 10:37 24.26340 42.08091 30837 ft 538 kts 111°
2026-04-29 10:37 24.25288 42.12072 31154 ft 537 kts 111°
2026-04-29 10:38 24.24255 42.15976 31490 ft 535 kts 111°
2026-04-29 10:38 24.23212 42.19923 31810 ft 533 kts 111°
2026-04-29 10:38 24.22169 42.23854 32125 ft 532 kts 111°
2026-04-29 10:38 24.21139 42.27743 32418 ft 532 kts 111°
2026-04-29 10:39 24.20098 42.31651 32766 ft 531 kts 111°
2026-04-29 10:39 24.19062 42.35556 33104 ft 529 kts 110°
2026-04-29 10:39 24.18024 42.39463 33463 ft 528 kts 111°
2026-04-29 10:39 24.17000 42.43310 33785 ft 527 kts 111°
2026-04-29 10:40 24.15979 42.47135 34070 ft 527 kts 111°
2026-04-29 10:40 24.14946 42.51011 34358 ft 527 kts 111°
2026-04-29 10:40 24.13923 42.54836 34650 ft 527 kts 111°
2026-04-29 10:40 24.12889 42.58693 34900 ft 528 kts 111°
2026-04-29 10:41 24.11869 42.62504 35032 ft 529 kts 110°
2026-04-29 10:41 24.09782 42.70289 35039 ft 529 kts 111°
2026-04-29 10:42 24.07704 42.78015 35044 ft 527 kts 111°
2026-04-29 10:42 24.05611 42.85772 35048 ft 527 kts 111°
2026-04-29 10:43 24.03535 42.93460 35053 ft 527 kts 111°
2026-04-29 10:43 24.01450 43.01165 35056 ft 525 kts 111°
2026-04-29 10:44 23.99365 43.08857 35056 ft 525 kts 111°
2026-04-29 10:44 23.97278 43.16525 35056 ft 525 kts 111°
2026-04-29 10:45 23.95179 43.24226 35046 ft 525 kts 111°
2026-04-29 10:45 23.93085 43.31887 35048 ft 526 kts 111°
2026-04-29 10:46 23.90983 43.39575 35055 ft 525 kts 111°
2026-04-29 10:46 23.88878 43.47261 35053 ft 522 kts 111°
2026-04-29 10:47 23.86781 43.54884 35054 ft 523 kts 111°
2026-04-29 10:47 23.84664 43.62563 35052 ft 524 kts 111°
2026-04-29 10:48 23.82569 43.70157 35042 ft 522 kts 111°
2026-04-29 10:48 23.80447 43.77825 35041 ft 520 kts 111°
2026-04-29 10:49 23.78422 43.85445 35037 ft 523 kts 108°
2026-04-29 10:49 23.77078 43.93247 35032 ft 526 kts 100°
2026-04-29 10:50 23.76427 44.01200 35022 ft 526 kts 97°
2026-04-29 10:50 23.75868 44.09162 35013 ft 527 kts 97°
2026-04-29 10:51 23.75290 44.17141 35009 ft 526 kts 98°
2026-04-29 10:51 23.74688 44.25132 35007 ft 526 kts 98°
2026-04-29 10:52 23.74081 44.33131 35009 ft 526 kts 98°
2026-04-29 10:52 23.73469 44.41149 35017 ft 526 kts 98°
2026-04-29 10:53 23.72853 44.49125 35020 ft 526 kts 97°
2026-04-29 10:53 23.72234 44.57099 35030 ft 526 kts 97°
2026-04-29 10:54 23.71608 44.65116 35027 ft 526 kts 98°
2026-04-29 10:54 23.70981 44.73103 35024 ft 525 kts 98°
2026-04-29 10:55 23.70352 44.81052 35017 ft 525 kts 98°
2026-04-29 10:55 23.69719 44.88993 35008 ft 524 kts 98°
2026-04-29 10:56 23.69080 44.96982 35007 ft 524 kts 98°
2026-04-29 10:56 23.68436 45.04944 34998 ft 525 kts 98°
2026-04-29 10:57 23.67788 45.12910 34996 ft 524 kts 98°
2026-04-29 10:57 23.67139 45.20821 35001 ft 523 kts 98°
2026-04-29 10:58 23.66489 45.28738 35001 ft 523 kts 98°
2026-04-29 10:58 23.65833 45.36714 34999 ft 523 kts 98°
2026-04-29 10:59 23.65173 45.44615 34990 ft 524 kts 98°
2026-04-29 10:59 23.64504 45.52600 34979 ft 523 kts 98°
2026-04-29 11:00 23.63831 45.60549 34967 ft 523 kts 98°
2026-04-29 11:00 23.63156 45.68489 34959 ft 524 kts 98°
2026-04-29 11:01 23.62481 45.76432 34952 ft 523 kts 98°
2026-04-29 11:01 23.61802 45.84355 34947 ft 522 kts 98°
2026-04-29 11:02 23.61120 45.92217 34941 ft 522 kts 98°
2026-04-29 11:02 23.60429 46.00159 34928 ft 522 kts 98°
2026-04-29 11:03 23.59736 46.08083 34935 ft 522 kts 98°
2026-04-29 11:03 23.59037 46.16017 34950 ft 523 kts 98°
2026-04-29 11:04 23.58342 46.23900 34961 ft 521 kts 98°
2026-04-29 11:04 23.57632 46.31828 34974 ft 522 kts 98°
2026-04-29 11:05 23.56924 46.39727 34991 ft 521 kts 98°
2026-04-29 11:05 23.56208 46.47646 35003 ft 520 kts 98°
2026-04-29 11:06 23.55504 46.55423 35013 ft 521 kts 98°
2026-04-29 11:06 23.54788 46.63307 34993 ft 520 kts 98°
2026-04-29 11:07 23.54068 46.71191 34971 ft 519 kts 99°
2026-04-29 11:07 23.53341 46.79061 34949 ft 520 kts 99°
2026-04-29 11:08 23.52612 46.86924 34933 ft 519 kts 98°
2026-04-29 11:08 23.51881 46.94779 34914 ft 519 kts 99°
2026-04-29 11:09 23.51138 47.02674 34904 ft 520 kts 98°
2026-04-29 11:09 23.50397 47.10556 34898 ft 520 kts 99°
2026-04-29 11:10 23.49655 47.18387 34895 ft 519 kts 98°
2026-04-29 11:10 23.48903 47.26278 34892 ft 518 kts 98°
2026-04-29 11:11 23.48154 47.34094 34888 ft 518 kts 98°
2026-04-29 11:11 23.47398 47.41924 34883 ft 519 kts 99°
2026-04-29 11:12 23.46635 47.49807 34887 ft 518 kts 98°
2026-04-29 11:12 23.45876 47.57618 34882 ft 518 kts 98°
2026-04-29 11:13 23.45113 47.65452 34880 ft 518 kts 99°
2026-04-29 11:13 23.44343 47.73283 34871 ft 517 kts 99°
2026-04-29 11:14 23.43578 47.81026 34869 ft 516 kts 99°
2026-04-29 11:14 23.42801 47.88836 34868 ft 517 kts 99°
2026-04-29 11:15 23.42024 47.96631 34860 ft 515 kts 99°
2026-04-29 11:15 23.41240 48.04436 34855 ft 515 kts 99°
2026-04-29 11:16 23.40455 48.12212 34845 ft 515 kts 99°
2026-04-29 11:16 23.39666 48.20003 34839 ft 516 kts 99°
2026-04-29 11:17 23.38619 48.27740 34836 ft 513 kts 105°
2026-04-29 11:17 23.36583 48.35143 34830 ft 508 kts 115°
2026-04-29 11:18 23.33572 48.42033 34828 ft 503 kts 124°
2026-04-29 11:18 23.29872 48.48445 34823 ft 501 kts 127°
2026-04-29 11:19 23.26124 48.54770 34828 ft 501 kts 127°
2026-04-29 11:19 23.22366 48.61147 34822 ft 501 kts 127°
2026-04-29 11:20 23.18632 48.67504 34809 ft 500 kts 127°
2026-04-29 11:20 23.14911 48.73832 34802 ft 500 kts 127°
2026-04-29 11:21 23.11139 48.80243 34805 ft 499 kts 127°
2026-04-29 11:21 23.07378 48.86626 34802 ft 498 kts 127°
2026-04-29 11:22 23.03719 48.93086 34796 ft 502 kts 122°
2026-04-29 11:22 23.00900 49.00091 34788 ft 507 kts 112°
2026-04-29 11:23 22.99173 49.07562 34783 ft 511 kts 102°
2026-04-29 11:23 22.98478 49.15306 34780 ft 512 kts 96°
2026-04-29 11:24 22.98008 49.23053 34772 ft 512 kts 96°
2026-04-29 11:24 22.97522 49.30770 34759 ft 512 kts 96°
2026-04-29 11:25 22.97007 49.38547 34759 ft 512 kts 96°
2026-04-29 11:25 22.96486 49.46275 34752 ft 511 kts 96°
2026-04-29 11:26 22.95693 49.57868 34752 ft 511 kts 96°
2026-04-29 11:26 22.95160 49.65587 34754 ft 510 kts 97°
2026-04-29 11:27 22.94626 49.73268 34753 ft 510 kts 97°
2026-04-29 11:27 22.94086 49.80973 34754 ft 509 kts 97°
2026-04-29 11:28 22.93543 49.88674 34751 ft 509 kts 97°
2026-04-29 11:28 22.92997 49.96362 34752 ft 509 kts 97°
2026-04-29 11:29 22.92442 50.04104 34753 ft 508 kts 96°
2026-04-29 11:29 22.91893 50.11731 34751 ft 507 kts 97°
2026-04-29 11:30 22.91336 50.19432 34751 ft 507 kts 97°
2026-04-29 11:30 22.90776 50.27102 34748 ft 507 kts 97°
2026-04-29 11:31 22.90213 50.34765 34747 ft 508 kts 97°
2026-04-29 11:31 22.89646 50.42439 34756 ft 507 kts 96°
2026-04-29 11:32 22.89076 50.50089 34760 ft 507 kts 96°
2026-04-29 11:32 22.88503 50.57737 34759 ft 507 kts 96°
2026-04-29 11:33 22.87926 50.65381 34754 ft 508 kts 97°
2026-04-29 11:33 22.87342 50.73082 34745 ft 506 kts 97°
2026-04-29 11:34 22.86760 50.80723 34742 ft 506 kts 97°
2026-04-29 11:34 22.86173 50.88344 34738 ft 505 kts 97°
2026-04-29 11:35 22.85584 50.95957 34736 ft 505 kts 97°
2026-04-29 11:35 22.84991 51.03576 34732 ft 505 kts 97°
2026-04-29 11:36 22.84391 51.11234 34731 ft 505 kts 96°
2026-04-29 11:36 22.83792 51.18859 34730 ft 506 kts 97°
2026-04-29 11:37 22.83186 51.26498 34729 ft 505 kts 97°
2026-04-29 11:37 22.82580 51.34119 34731 ft 506 kts 97°
2026-04-29 11:38 22.81966 51.41758 34729 ft 505 kts 97°
2026-04-29 11:38 22.81350 51.49380 34727 ft 505 kts 96°
2026-04-29 11:39 22.80731 51.57003 34722 ft 505 kts 97°
2026-04-29 11:39 22.80107 51.64644 34717 ft 505 kts 96°
2026-04-29 11:40 22.79485 51.72232 34712 ft 505 kts 97°
2026-04-29 11:40 22.78856 51.79842 34712 ft 505 kts 97°
2026-04-29 11:41 22.78223 51.87465 34711 ft 505 kts 97°
2026-04-29 11:41 22.77592 51.95034 34709 ft 504 kts 97°
2026-04-29 11:42 22.76949 52.02683 34708 ft 504 kts 97°
2026-04-29 11:42 22.76307 52.10266 34716 ft 504 kts 97°
2026-04-29 11:43 22.75660 52.17882 34727 ft 504 kts 97°
2026-04-29 11:43 22.75013 52.25436 34730 ft 504 kts 97°
2026-04-29 11:44 22.74356 52.33071 34736 ft 505 kts 97°
2026-04-29 11:44 22.73699 52.40675 34738 ft 505 kts 96°
2026-04-29 11:45 22.73037 52.48294 34733 ft 504 kts 97°
2026-04-29 11:45 22.72373 52.55897 34736 ft 505 kts 97°
2026-04-29 11:46 22.71705 52.63496 34735 ft 504 kts 97°
2026-04-29 11:46 22.71035 52.71080 34739 ft 504 kts 97°
2026-04-29 11:47 22.70358 52.78683 34739 ft 503 kts 97°
2026-04-29 11:47 22.69794 52.84999 34740 ft 503 kts 97°
2026-04-29 11:48 22.68999 52.93845 34739 ft 503 kts 97°
2026-04-29 11:48 22.68319 53.01389 34738 ft 503 kts 97°
2026-04-29 11:49 22.67626 53.09019 34740 ft 503 kts 97°